Location: Cran-Gévrier
(45.9039°N, 6.1012°E)
Time: 10:27:20
(UTC+00:00)

Cosmos 1869 - Pass Details

Date: 09 February 2023
Orbit: 510 x 550 km, 82.5° (Epoch: 20 March)

Event Time Altitude Azimuth Distance (km) Brightness Sun altitude
Rises 18:02:42 0° 345° (NNW) 2,680 6.9 -12.6°
Reaches altitude 10° 18:04:54 10° 339° (NNW) 1,793 6.1 -13.0°
Maximum altitude 18:08:40 46° 266° (W) 729 4.5 -13.7°
Drops below altitude 10° 18:12:28 10° 193° (SSW) 1,802 6.2 -14.3°
Sets 18:14:41 0° 187° (S) 2,696 7.0 -14.7°
